sat.trackr.live / text

‹ back to catalog

STARLINK-34484

NORAD 64366 · 2025-126Y

PAYLOAD ACTIVE UNKNOWN

§ Identity

Operator
Country
US
Launch date
2025-06-13
Launch site
AFWTR
Launch vehicle
Mass (kg)
RCS (m²)

Purposes: comms

External: N2YO · Heavens-Above · Gunter

§ Orbital elements

Epoch: 2026-05-25T02:49:30.842112Z

Period
96.11 min
Inclination
70.0005°
Eccentricity
0.0003745
Mean motion
14.98337058 rev/d
Perigee alt
569.4 km
Apogee alt
574.6 km
Semi-major
6,950.2 km
B*
1.1652e-4
RAAN
201.6051°
Arg perigee
265.1013°
Mean anomaly
94.9719°
Rev number
5,334

§ Raw data

STARLINK-344841 64366U 25126Y   26145.11771808  .00001298  00000+0  11652-3 0  99992 64366  70.0005 201.6051 0003745 265.1013  94.9719 14.98337058 53343

JSON: /api/v1/satellites/64366 · /tle

For live sub-satellite position, see the globe view (requires WebGL).

§ Visibility from observer

Set your observer location to see the next 7 days of passes ≥ 10°. The values pass through the URL so the page stays shareable.

No JS? Fill the form by hand. The geolocation button needs JavaScript.